Time,TemperatureF,DewpointF,PressureIn,WindDirection,WindDirectionDegrees,WindSpeedMPH,WindSpeedGustMPH,Humidity,HourlyPrecipIn,Conditions,Clouds,dailyrainin,SoftwareType,DateUTC
2017-10-20 00:02:00,68.5,52.0,29.90,WSW,238,1.0,26.0,57,0.00,,,0.00,weatherlink.com 1.10,2017-10-20 07:02:00,
2017-10-20 00:17:00,69.3,52.0,29.90,WNW,300,8.0,18.0,55,0.00,,,0.00,weatherlink.com 1.10,2017-10-20 07:17:00,
2017-10-20 00:32:00,69.2,52.0,29.89,SW,225,10.0,23.0,55,0.00,,,0.00,weatherlink.com 1.10,2017-10-20 07:32:00,
2017-10-20 00:47:00,69.3,52.0,29.87,NNE,29,1.0,13.0,55,0.00,,,0.00,weatherlink.com 1.10,2017-10-20 07:47:00,
2017-10-20 01:02:00,69.3,52.0,29.88,WSW,250,0.0,12.0,55,0.00,,,0.00,weatherlink.com 1.10,2017-10-20 08:02:00,
2017-10-20 01:17:00,68.6,52.0,29.89,ENE,72,2.0,17.0,56,0.00,,,0.00,weatherlink.com 1.10,2017-10-20 08:17:00,
2017-10-20 01:32:00,68.2,52.0,29.89,West,259,4.0,10.0,57,0.00,,,0.00,weatherlink.com 1.10,2017-10-20 08:32:00,
2017-10-20 01:47:00,68.8,52.0,29.89,WNW,303,0.0,13.0,56,0.00,,,0.00,weatherlink.com 1.10,2017-10-20 08:47:00,
2017-10-20 02:17:00,67.8,52.0,29.88,WSW,250,0.0,10.0,58,0.00,,,0.00,weatherlink.com 1.10,2017-10-20 09:17:00,
2017-10-20 02:32:00,68.2,52.0,29.88,West,259,4.0,11.0,57,0.00,,,0.00,weatherlink.com 1.10,2017-10-20 09:32:00,
2017-10-20 02:47:00,68.2,52.0,29.88,NW,326,5.0,14.0,56,0.00,,,0.00,weatherlink.com 1.10,2017-10-20 09:47:00,
2017-10-20 03:02:00,66.6,52.0,29.88,NNW,343,0.0,12.0,60,0.00,,,0.00,weatherlink.com 1.10,2017-10-20 10:02:00,
2017-10-20 03:17:00,65.3,52.0,29.88,NE,53,0.0,8.0,63,0.00,,,0.00,weatherlink.com 1.10,2017-10-20 10:17:00,
2017-10-20 03:32:00,64.4,52.0,29.88,East,95,6.0,6.0,65,0.00,,,0.00,weatherlink.com 1.10,2017-10-20 10:32:00,
2017-10-20 03:47:00,63.4,52.0,29.88,NW,320,2.0,4.0,67,0.00,,,0.00,weatherlink.com 1.10,2017-10-20 10:47:00,
2017-10-20 04:02:00,63.2,52.0,29.87,SW,227,2.0,5.0,67,0.00,,,0.00,weatherlink.com 1.10,2017-10-20 11:02:00,
2017-10-20 04:18:00,65.7,52.0,29.88,WSW,240,3.0,10.0,61,0.00,,,0.00,weatherlink.com 1.10,2017-10-20 11:18:00,
2017-10-20 04:32:00,67.1,52.0,29.88,West,281,8.0,15.0,58,0.00,,,0.00,weatherlink.com 1.10,2017-10-20 11:32:00,
2017-10-20 04:47:00,66.8,52.0,29.88,West,281,7.0,10.0,59,0.00,,,0.00,weatherlink.com 1.10,2017-10-20 11:47:00,
2017-10-20 05:02:00,66.9,51.0,29.88,WNW,299,3.0,10.0,57,0.00,,,0.00,weatherlink.com 1.10,2017-10-20 12:02:00,
2017-10-20 05:17:00,67.1,51.0,29.89,WNW,288,4.0,8.0,57,0.00,,,0.00,weatherlink.com 1.10,2017-10-20 12:17:00,
2017-10-20 05:32:00,67.2,51.0,29.90,WNW,292,1.0,10.0,57,0.00,,,0.00,weatherlink.com 1.10,2017-10-20 12:32:00,
2017-10-20 05:47:00,67.1,52.0,29.89,West,260,4.0,12.0,58,0.00,,,0.00,weatherlink.com 1.10,2017-10-20 12:47:00,
2017-10-20 06:02:00,67.6,53.0,29.90,NW,321,4.0,16.0,59,0.00,,,0.00,weatherlink.com 1.10,2017-10-20 13:02:00,
2017-10-20 06:18:00,67.3,53.0,29.90,West,262,4.0,16.0,60,0.00,,,0.00,weatherlink.com 1.10,2017-10-20 13:18:00,
2017-10-20 06:32:00,67.1,53.0,29.90,NW,315,5.0,17.0,60,0.00,,,0.00,weatherlink.com 1.10,2017-10-20 13:32:00,
2017-10-20 06:47:00,66.7,53.0,29.91,NW,308,4.0,12.0,61,0.00,,,0.00,weatherlink.com 1.10,2017-10-20 13:47:00,
2017-10-20 07:02:00,66.3,53.0,29.91,NE,53,1.0,7.0,62,0.00,,,0.00,weatherlink.com 1.10,2017-10-20 14:02:00,
2017-10-20 07:17:00,64.4,53.0,29.90,NNW,340,1.0,7.0,66,0.00,,,0.00,weatherlink.com 1.10,2017-10-20 14:17:00,
2017-10-20 07:33:00,66.0,54.0,29.90,NNE,23,0.0,13.0,65,0.00,,,0.00,weatherlink.com 1.10,2017-10-20 14:33:00,
2017-10-20 07:48:00,66.7,54.0,29.90,SE,128,8.0,8.0,64,0.00,,,0.00,weatherlink.com 1.10,2017-10-20 14:48:00,
2017-10-20 08:03:00,66.5,54.0,29.90,SE,126,0.0,9.0,65,0.00,,,0.00,weatherlink.com 1.10,2017-10-20 15:03:00,
2017-10-20 08:17:00,67.3,55.0,29.91,ESE,119,2.0,11.0,65,0.00,,,0.00,weatherlink.com 1.10,2017-10-20 15:17:00,
2017-10-20 08:32:00,68.5,55.0,29.91,NE,39,0.0,6.0,63,0.00,,,0.00,weatherlink.com 1.10,2017-10-20 15:32:00,
2017-10-20 08:48:00,69.5,56.0,29.91,SW,225,0.0,10.0,63,0.00,,,0.00,weatherlink.com 1.10,2017-10-20 15:48:00,
2017-10-20 09:03:00,70.0,56.0,29.92,West,269,2.0,7.0,61,0.00,,,0.00,weatherlink.com 1.10,2017-10-20 16:03:00,
2017-10-20 09:18:00,68.1,57.0,29.92,West,265,8.0,12.0,68,0.00,,,0.00,weatherlink.com 1.10,2017-10-20 16:18:00,
2017-10-20 09:32:00,67.8,58.0,29.92,WNW,288,1.0,9.0,70,0.00,,,0.00,weatherlink.com 1.10,2017-10-20 16:32:00,
2017-10-20 09:48:00,69.6,57.0,29.92,NNE,15,5.0,16.0,64,0.00,,,0.00,weatherlink.com 1.10,2017-10-20 16:48:00,
2017-10-20 10:02:00,68.6,57.0,29.92,North,360,5.0,21.0,66,0.00,,,0.00,weatherlink.com 1.10,2017-10-20 17:02:00,
2017-10-20 10:17:00,68.2,57.0,29.92,NE,49,4.0,19.0,67,0.00,,,0.00,weatherlink.com 1.10,2017-10-20 17:17:00,
2017-10-20 10:32:00,68.8,57.0,29.92,North,355,13.0,18.0,66,0.00,,,0.00,weatherlink.com 1.10,2017-10-20 17:32:00,
2017-10-20 10:48:00,70.3,57.0,29.91,North,355,6.0,15.0,62,0.00,,,0.00,weatherlink.com 1.10,2017-10-20 17:48:00,
2017-10-20 11:03:00,71.5,56.0,29.91,North,355,9.0,17.0,58,0.00,,,0.00,weatherlink.com 1.10,2017-10-20 18:03:00,
2017-10-20 11:18:00,72.8,56.0,29.90,NW,323,12.0,14.0,55,0.00,,,0.00,weatherlink.com 1.10,2017-10-20 18:18:00,
2017-10-20 11:33:00,73.5,55.0,29.90,North,5,5.0,14.0,53,0.00,,,0.00,weatherlink.com 1.10,2017-10-20 18:33:00,
2017-10-20 11:48:00,74.7,54.0,29.90,WNW,283,4.0,14.0,49,0.00,,,0.00,weatherlink.com 1.10,2017-10-20 18:48:00,
2017-10-20 12:03:00,75.2,54.0,29.89,WNW,294,7.0,14.0,47,0.00,,,0.00,weatherlink.com 1.10,2017-10-20 19:03:00,
2017-10-20 12:18:00,75.4,54.0,29.89,West,278,10.0,14.0,48,0.00,,,0.00,weatherlink.com 1.10,2017-10-20 19:18:00,
2017-10-20 12:33:00,76.0,52.0,29.89,North,360,6.0,16.0,44,0.00,,,0.00,weatherlink.com 1.10,2017-10-20 19:33:00,
2017-10-20 12:48:00,76.2,53.0,29.88,NW,323,4.0,12.0,45,0.00,,,0.00,weatherlink.com 1.10,2017-10-20 19:48:00,
2017-10-20 13:03:00,76.6,51.0,29.88,NNE,23,6.0,14.0,41,0.00,,,0.00,weatherlink.com 1.10,2017-10-20 20:03:00,
2017-10-20 13:18:00,76.7,51.0,29.88,WNW,294,0.0,16.0,41,0.00,,,0.00,weatherlink.com 1.10,2017-10-20 20:18:00,
2017-10-20 13:33:00,76.6,49.0,29.88,NNE,13,11.0,16.0,38,0.00,,,0.00,weatherlink.com 1.10,2017-10-20 20:33:00,
2017-10-20 13:48:00,76.5,48.0,29.87,WNW,303,3.0,25.0,36,0.00,,,0.00,weatherlink.com 1.10,2017-10-20 20:48:00,
2017-10-20 14:03:00,76.6,48.0,29.87,West,267,13.0,22.0,36,0.00,,,0.00,weatherlink.com 1.10,2017-10-20 21:03:00,
2017-10-20 14:19:00,76.8,47.0,29.86,NNW,342,15.0,16.0,35,0.00,,,0.00,weatherlink.com 1.10,2017-10-20 21:19:00,
2017-10-20 14:33:00,76.0,47.0,29.85,NW,306,15.0,21.0,36,0.00,,,0.00,weatherlink.com 1.10,2017-10-20 21:33:00,
2017-10-20 14:48:00,76.6,45.0,29.85,WNW,298,8.0,19.0,33,0.00,,,0.00,weatherlink.com 1.10,2017-10-20 21:48:00,
2017-10-20 15:03:00,76.2,43.0,29.86,North,5,13.0,22.0,31,0.00,,,0.00,weatherlink.com 1.10,2017-10-20 22:03:00,
2017-10-20 15:18:00,75.7,44.0,29.86,WNW,292,5.0,20.0,32,0.00,,,0.00,weatherlink.com 1.10,2017-10-20 22:18:00,
2017-10-20 15:33:00,75.1,43.0,29.86,NNW,333,13.0,25.0,32,0.00,,,0.00,weatherlink.com 1.10,2017-10-20 22:33:00,
2017-10-20 15:48:00,74.9,44.0,29.87,NW,309,7.0,19.0,33,0.00,,,0.00,weatherlink.com 1.10,2017-10-20 22:48:00,
2017-10-20 16:03:00,74.2,44.0,29.87,North,355,13.0,21.0,34,0.00,,,0.00,weatherlink.com 1.10,2017-10-20 23:03:00,
2017-10-20 16:18:00,73.9,43.0,29.86,NNW,344,6.0,25.0,33,0.00,,,0.00,weatherlink.com 1.10,2017-10-20 23:18:00,
2017-10-20 16:33:00,74.3,44.0,29.87,NNW,333,5.0,17.0,34,0.00,,,0.00,weatherlink.com 1.10,2017-10-20 23:33:00,
2017-10-20 16:48:00,74.2,43.0,29.87,WNW,290,7.0,20.0,33,0.00,,,0.00,weatherlink.com 1.10,2017-10-20 23:48:00,
2017-10-20 17:03:00,74.1,42.0,29.87,NNW,345,12.0,20.0,32,0.00,,,0.00,weatherlink.com 1.10,2017-10-21 00:03:00,
2017-10-20 17:18:00,71.8,45.0,29.88,WNW,293,10.0,18.0,38,0.00,,,0.00,weatherlink.com 1.10,2017-10-21 00:18:00,
2017-10-20 17:33:00,70.9,45.0,29.89,NNW,327,4.0,20.0,40,0.00,,,0.00,weatherlink.com 1.10,2017-10-21 00:33:00,
2017-10-20 17:48:00,70.2,45.0,29.88,NW,319,6.0,10.0,40,0.00,,,0.00,weatherlink.com 1.10,2017-10-21 00:48:00,
2017-10-20 18:04:00,69.1,44.0,29.89,NW,314,2.0,15.0,41,0.00,,,0.00,weatherlink.com 1.10,2017-10-21 01:04:00,
2017-10-20 18:18:00,68.0,44.0,29.89,NNW,337,1.0,7.0,42,0.00,,,0.00,weatherlink.com 1.10,2017-10-21 01:18:00,
2017-10-20 18:33:00,66.9,44.0,29.90,WNW,300,2.0,10.0,43,0.00,,,0.00,weatherlink.com 1.10,2017-10-21 01:33:00,
2017-10-20 18:48:00,65.9,44.0,29.91,East,79,0.0,7.0,45,0.00,,,0.00,weatherlink.com 1.10,2017-10-21 01:48:00,
2017-10-20 19:03:00,65.0,44.0,29.93,NW,311,0.0,5.0,46,0.00,,,0.00,weatherlink.com 1.10,2017-10-21 02:03:00,
2017-10-20 19:18:00,64.1,45.0,29.93,SW,219,0.0,4.0,50,0.00,,,0.00,weatherlink.com 1.10,2017-10-21 02:18:00,
2017-10-20 19:33:00,62.1,46.0,29.94,SW,232,5.0,8.0,55,0.00,,,0.00,weatherlink.com 1.10,2017-10-21 02:33:00,
2017-10-20 19:48:00,61.6,46.0,29.94,SSW,211,0.0,5.0,57,0.00,,,0.00,weatherlink.com 1.10,2017-10-21 02:48:00,
2017-10-20 20:03:00,61.2,46.0,29.94,SSE,163,1.0,7.0,58,0.00,,,0.00,weatherlink.com 1.10,2017-10-21 03:03:00,
2017-10-20 20:26:00,61.1,46.0,29.94,WSW,257,3.0,10.0,58,0.00,,,0.00,weatherlink.com 1.10,2017-10-21 03:26:00,
2017-10-20 20:36:00,60.8,46.0,29.95,WSW,252,0.0,9.0,59,0.00,,,0.00,weatherlink.com 1.10,2017-10-21 03:36:00,
2017-10-20 20:48:00,60.5,46.0,29.95,NNE,17,0.0,9.0,59,0.00,,,0.00,weatherlink.com 1.10,2017-10-21 03:48:00,
2017-10-20 21:03:00,59.8,46.0,29.95,WNW,300,3.0,12.0,60,0.00,,,0.00,weatherlink.com 1.10,2017-10-21 04:03:00,